Tracking 27422 objects as of 29-May-2023
HD Live streaming from Space Station
objects crossing your sky now

TEVEL 1

Track TEVEL 1 now!
10-day predictions
TEVEL 1 is classified as:


NORAD ID: 51013
Int'l Code: 2022-002AF
Perigee: 495.7 km
Apogee: 504.0 km
Inclination: 97.4 °
Period: 94.5 minutes
Semi major axis: 6870 km
RCS: Unknown
Launch date: January 13, 2022
Source: Israel (ISRA)
Launch site: AIR FORCE EASTERN TEST RANGE (AFETR)

Uplink (MHz): 145.970
Downlink (MHz): 436.400
Beacon (MHz):
Mode: 9600bps BPSK FM
Call sign: T1OFK
Status: Active

Your satellite tracking list
Your tracking list is empty




NASA's NSSDC Master Catalog

Two Line Element Set (TLE):
1 51013U 22002AF  23149.55038835  .00015158  00000-0  62092-3 0  9994
2 51013  97.4336 216.5974 0006071 299.3017  60.7614 15.24368006 75925
Source of the keplerian elements: AMSAT